Regional Weather Roundup
Issued by NWS

Home | Current Version | Previous Version | Graphics & Text | Print | Product List | Glossary On
Versions: 1 2 3 4 5 6 7 8 9 10 11 12 13 14 15 16 17 18 19 20 21 22 23 24 25 26 27 28 29 30 31 32 33 34 35 36 37 38 39 40 41 42 43 44 45 46 47 48 49 50
000
ASUS43 KLOT 061100
RWRIL

ILLINOIS REGIONAL WEATHER ROUNDUP
NATIONAL WEATHER SERVICE CHICAGO/ROMEOVILLE IL
600 AM CDT WED MAY 06 2015

NOTE: "FAIR" INDICATES FEW OR NO CLOUDS BELOW 12,000 FEET WITH NO
SIGNIFICANT WEATHER AND/OR OBSTRUCTIONS TO VISIBILITY.

* THESE STATIONS ARE NOT UNDER NWS QUALITY CONTROL. THEY ALSO MAY NOT
  REPORT WEATHER SUCH AS PRECIPITATION OR FOG.

ILZ001-002-007-009-015-016-024-061200-
NORTHWEST ILLINOIS

CITY           SKY/WX    TMP DP  RH WIND       PRES   REMARKS
MOLINE         CLOUDY    56  54  93 E9        30.10F FOG
STERLING*      CLOUDY    54  52  94 E12       30.14R VSB 1/4
$$

ILZ003-004-008-010-011-017-018-061200-
NORTH CENTRAL ILLINOIS

CITY           SKY/WX    TMP DP  RH WIND       PRES   REMARKS
ROCKFORD       FOG       50  49  96 E5        30.18S VSB 1/2
$$

ILZ005-006-012>014-019>023-061200-
NORTHEAST ILLINOIS

CITY           SKY/WX    TMP DP  RH WIND       PRES   REMARKS
CHICAGO-OHARE  FOG       48  48 100 CALM      30.17S VSB 1/4
CHICAGO-MIDWAY FOG       52  51  97 E6        30.17S VSB 1/8
AURORA         FOG       52  49  89 E8        30.16F VSB 1/4
WAUKEGAN       FOG       44  44 100 E3        30.18S VSB 1/4
DUPAGE AIRPORT FOG       50  49  96 E5        30.16F VSB 1/2
WHEELING       FOG       46  45  96 CALM      30.19S VSB 1/4
NORTHERLY ISL    N/A     47  46  97 NE1         N/A
$$

LMZ740>746-061200-
SOUTHERN LAKE MICHIGAN

STATION/POSITION SKY/WX   TEMP    WIND        PRES    VSBY  WAVE
                          AIR SEA DIR/SP/G                  HT/PER
                          (F)     (DEG/KT/KT) (MB)    (MI)  (FT/S)
HARRISON CRIB              45      20/  2/  2   N/A
BURNHAM HARBOR             47      10/  2/  7   N/A
CALUMET HARBOR             47     340/  1/  4   N/A
BURNS HARBOR               57     150/  4/  9 1022.4S
MICHIGAN CITY              56      90/  5/  8   N/A
MICHIGAN CITY 6N           53 51  110/  4/  6   N/A           1
ST. JOSEPH                 54 50  130/  4/  6   N/A           1
$$

ILZ025>027-034>036-040-047-049-050-058-095>099-061200-
WEST-CENTRAL ILLINOIS

CITY           SKY/WX    TMP DP  RH WIND       PRES   REMARKS
QUINCY         CLOUDY    65  56  72 S8        30.08S
$$

ILZ028>032-037-038-041>044-048-051>054-059>061-061200-
CENTRAL ILLINOIS

CITY           SKY/WX    TMP DP  RH WIND       PRES   REMARKS
DECATUR        CLOUDY    60  55  83 SE5       30.14R
PEORIA         PTCLDY    60  57  89 E7        30.12R FOG
SPRINGFIELD    CLOUDY    68  56  65 S9        30.12R
TAYLORVILLE    NOT AVBL
$$

ILZ033-039-045-046-055>057-062-063-061200-
EAST-CENTRAL ILLINOIS

CITY           SKY/WX    TMP DP  RH WIND       PRES   REMARKS
CHAMPAIGN      CLOUDY    66  56  70 SE7       30.15R
MATTOON        MOCLDY    64  54  69 S6        30.14S
$$

ILZ079-100>102-061200-
SOUTHWEST ILLINOIS

CITY           SKY/WX    TMP DP  RH WIND       PRES   REMARKS
CAHOKIA*       CLEAR     61  56  83 CALM      30.12R
$$

ILZ064>066-069>071-074>076-080>082-084>086-088>090-092>094-061200-
SOUTH-CENTRAL ILLINOIS

CITY           SKY/WX    TMP DP  RH WIND       PRES   REMARKS
CARBONDALE     CLEAR     58  53  84 E3        30.14S
MT. VERNON     CLEAR    N/A N/A N/A CALM      30.15S
$$

ILZ067-068-072-073-078-083-087-091-061200-
SOUTHEAST ILLINOIS

CITY           SKY/WX    TMP DP  RH WIND       PRES   REMARKS
LAWRENCEVILLE  CLEAR     59  56  89 CALM      30.17R
$$

ABBREVIATIONS USED IN REMARKS
   TC - TEMPERATURE IN CELSIUS
  WCI - WIND CHILL INDEX
   HX - HEAT INDEX
  VSB - VISIBILITY
$$



USA.gov is the U.S. government's official web portal to all federal, state and local government web resources and services.